WXM80 ListenWXM80 Stop

You find our weather info also at:

UK Metoffice

WeatherCloud

Weather Underground

Northeastern Weather Network

AWEKAS

Citizen Weather Observer Program (CWOP)

HAMweather, WeatherForYou, PWS Weather


Weather Underground History page Text

Daily Summary for April 30, 2017 Units:  Metric    English   Both
« Previous Day
Next Day »
Daily Weekly Monthly Yearly Custom
  High: Low: Average:
Temperature: 19.5 °C 10.4 °C 14.1 °C
Dew Point: 13.8 °C 4.8 °C 8.3 °C
Humidity: 80 % 54 % 68 %
Wind Speed: 12.9 km/h 0 km/h 3.5 km/h
Wind Gust: 24.1 km/h - -
Wind:- - ESE
Pressure: 1023.9 hPa 1018.2 hPa -
Precipitation: 0 mm    
Historical Graphs
 
 
Tabular Data for April 30, 2017
Time Temperature Dew Point Pressure Wind Wind Speed Wind Gust Humidity Rainfall Rate (Hourly)
00:04 19.5 °C 13.7 °C 1018.2 hPa West 1.4 km/h 5.6 km/h 69 % 0 mm
00:09 19.4 °C 13.6 °C 1018.2 hPa WNW 1.4 km/h 5.6 km/h 69 % 0 mm
00:14 19.4 °C 13.8 °C 1018.2 hPa West 0.8 km/h 3.7 km/h 70 % 0 mm
00:19 19.4 °C 13.8 °C 1018.2 hPa WSW 1.8 km/h 6.4 km/h 70 % 0 mm
00:24 19.3 °C 13.7 °C 1018.2 hPa WNW 0.6 km/h 5.6 km/h 70 % 0 mm
00:29 19.3 °C 13.7 °C 1018.2 hPa West 1.3 km/h 6.4 km/h 70 % 0 mm
00:34 19.3 °C 13.7 °C 1018.2 hPa West 2.6 km/h 5.6 km/h 70 % 0 mm
00:39 19.2 °C 13.6 °C 1018.5 hPa Calm   3.7 km/h 70 % 0 mm
00:44 19.2 °C 13.6 °C 1018.2 hPa WSW 1.6 km/h 3.7 km/h 70 % 0 mm
00:49 19.1 °C 13.7 °C 1018.2 hPa WSW 2.9 km/h 5.6 km/h 71 % 0 mm
00:54 19.1 °C 13.4 °C 1018.2 hPa WSW 2.1 km/h 5.6 km/h 70 % 0 mm
00:59 18.9 °C 13.3 °C 1018.2 hPa WSW 0.6 km/h 1.9 km/h 70 % 0 mm
01:04 18.8 °C 13.4 °C 1018.2 hPa WNW 1.8 km/h 9.3 km/h 71 % 0 mm
01:10 18.7 °C 13.3 °C 1018.2 hPa West 3.1 km/h 7.4 km/h 71 % 0 mm
01:14 18.7 °C 13.3 °C 1018.2 hPa Calm     71 % 0 mm
01:20 18.6 °C 13.2 °C 1018.5 hPa West 0.8 km/h 3.7 km/h 71 % 0 mm
01:25 18.5 °C 13.2 °C 1018.5 hPa WSW 2.9 km/h 5.6 km/h 71 % 0 mm
01:30 18.4 °C 13.3 °C 1018.5 hPa Calm   1.9 km/h 72 % 0 mm
01:35 18.4 °C 13.2 °C 1018.5 hPa Calm     72 % 0 mm
01:40 18.3 °C 13.2 °C 1018.5 hPa Calm   1.9 km/h 72 % 0 mm
01:45 18.2 °C 13.1 °C 1018.5 hPa SW 0.6 km/h 1.9 km/h 72 % 0 mm
01:50 18.1 °C 13.2 °C 1018.5 hPa WSW 1.8 km/h 5.6 km/h 73 % 0 mm
01:55 18.1 °C 13.2 °C 1018.5 hPa WSW 2.3 km/h 3.7 km/h 73 % 0 mm
02:00 17.9 °C 13.2 °C 1018.5 hPa West 0.6 km/h 5.6 km/h 74 % 0 mm
02:05 17.8 °C 13.1 °C 1018.5 hPa West 2.7 km/h 5.6 km/h 74 % 0 mm
02:10 17.7 °C 13 °C 1018.5 hPa West 3.2 km/h 6.4 km/h 74 % 0 mm
02:15 17.7 °C 13 °C 1018.5 hPa Calm   5.6 km/h 74 % 0 mm
02:20 17.6 °C 12.9 °C 1018.8 hPa WNW 3.2 km/h 6.4 km/h 74 % 0 mm
02:25 17.5 °C 12.8 °C 1018.8 hPa WNW 1.6 km/h 8 km/h 74 % 0 mm
02:30 17.4 °C 12.8 °C 1018.8 hPa Calm   3.2 km/h 74 % 0 mm
02:35 17.4 °C 12.7 °C 1018.8 hPa Calm   3.2 km/h 74 % 0 mm
02:40 17.3 °C 12.6 °C 1018.8 hPa North 3.2 km/h 8 km/h 74 % 0 mm
02:45 17.2 °C 12.5 °C 1018.8 hPa North 1.6 km/h 4.8 km/h 74 % 0 mm
02:50 17.1 °C 12.4 °C 1018.8 hPa Calm   4.8 km/h 74 % 0 mm
02:55 16.9 °C 12.3 °C 1018.8 hPa NNW 1.6 km/h 4.8 km/h 74 % 0 mm
03:01 16.8 °C 12.3 °C 1019.2 hPa North 0.5 km/h 5.6 km/h 75 % 0 mm
03:06 16.6 °C 12.2 °C 1019.2 hPa North 1.1 km/h 3.7 km/h 75 % 0 mm
03:11 16.6 °C 12.1 °C 1019.2 hPa NNE 1.1 km/h 5.6 km/h 75 % 0 mm
03:16 16.4 °C 12.2 °C 1019.2 hPa NNE 4.3 km/h 7.4 km/h 76 % 0 mm
03:21 16.3 °C 12.1 °C 1018.8 hPa NNE 6 km/h 9.3 km/h 76 % 0 mm
03:26 16.2 °C 11.8 °C 1019.2 hPa North 1.3 km/h 3.7 km/h 75 % 0 mm
03:31 16.1 °C 11.7 °C 1019.5 hPa NNE 6.4 km/h 11.1 km/h 75 % 0 mm
03:36 15.8 °C 10.4 °C 1019.5 hPa NNE 10.1 km/h 20.9 km/h 70 % 0 mm
03:41 15.6 °C 8.1 °C 1019.5 hPa NNE 12.9 km/h 20.4 km/h 61 % 0 mm
03:46 15.6 °C 8.6 °C 1019.5 hPa North 6.1 km/h 11.3 km/h 63 % 0 mm
03:51 15.5 °C 9.4 °C 1019.5 hPa NNE 5.8 km/h 13 km/h 67 % 0 mm
03:56 15.4 °C 9.7 °C 1019.5 hPa NE 5.8 km/h 11.1 km/h 69 % 0 mm
04:01 15.2 °C 9.1 °C 1019.9 hPa NNE 8.4 km/h 14.5 km/h 67 % 0 mm
04:07 15.1 °C 8.7 °C 1019.9 hPa NNE 3.9 km/h 8 km/h 66 % 0 mm
04:12 14.9 °C 8.9 °C 1019.5 hPa NE 7.1 km/h 9.7 km/h 67 % 0 mm
04:17 14.8 °C 9 °C 1019.9 hPa NNE 6.4 km/h 11.1 km/h 68 % 0 mm
04:22 14.8 °C 8.9 °C 1019.9 hPa NNE 5.3 km/h 9.7 km/h 68 % 0 mm
04:27 14.7 °C 9.1 °C 1020.2 hPa North 8.9 km/h 13 km/h 69 % 0 mm
04:32 14.6 °C 8.7 °C 1020.2 hPa NNE 6 km/h 7.4 km/h 68 % 0 mm
04:34 14.5 °C 8.4 °C 1020.2 hPa North 10 km/h 16.7 km/h 67 % 0 mm
04:40 14.4 °C 8.4 °C 1020.2 hPa NNE 6.4 km/h 9.7 km/h 67 % 0 mm
04:45 14.4 °C 8.6 °C 1020.5 hPa North 6.1 km/h 11.1 km/h 68 % 0 mm
04:50 14.3 °C 8.7 °C 1020.5 hPa NE 6.6 km/h 16.7 km/h 69 % 0 mm
04:55 14.2 °C 8.8 °C 1020.5 hPa NE 6.8 km/h 9.3 km/h 70 % 0 mm
05:00 14.1 °C 8.9 °C 1020.5 hPa NNE 0.3 km/h 3.7 km/h 71 % 0 mm
05:05 14 °C 9.4 °C 1020.5 hPa NE 2.3 km/h 5.6 km/h 74 % 0 mm
05:10 13.9 °C 9.6 °C 1020.5 hPa NE 0.8 km/h 3.7 km/h 75 % 0 mm
05:15 13.8 °C 9.6 °C 1020.5 hPa NE 0.8 km/h 5.6 km/h 76 % 0 mm
05:20 13.6 °C 9.3 °C 1020.5 hPa Calm   1.9 km/h 75 % 0 mm
05:25 13.4 °C 9.3 °C 1020.9 hPa NNE 1.3 km/h 5.6 km/h 76 % 0 mm
05:30 13.3 °C 8.9 °C 1020.9 hPa Calm   1.9 km/h 75 % 0 mm
05:35 13.2 °C 9 °C 1020.9 hPa NNE 3.7 km/h 7.4 km/h 76 % 0 mm
05:40 13 °C 8.7 °C 1020.9 hPa NNE 2.1 km/h 4.8 km/h 75 % 0 mm
05:45 12.8 °C 8.5 °C 1020.9 hPa NNE 0.3 km/h 1.9 km/h 75 % 0 mm
05:51 12.7 °C 8.4 °C 1020.9 hPa NNE 1.6 km/h 9.7 km/h 75 % 0 mm
05:56 12.6 °C 7.8 °C 1021.2 hPa NNE 8 km/h 14.5 km/h 73 % 0 mm
06:01 12.4 °C 7.6 °C 1021.6 hPa NNE 4.2 km/h 11.1 km/h 72 % 0 mm
06:06 12.4 °C 7.7 °C 1021.6 hPa NNE 3.2 km/h 11.3 km/h 73 % 0 mm
06:11 12.5 °C 7.8 °C 1021.2 hPa North 10.3 km/h 16.7 km/h 73 % 0 mm
06:16 12.5 °C 7.2 °C 1021.6 hPa North 7.6 km/h 14.8 km/h 70 % 0 mm
06:21 12.6 °C 7.4 °C 1021.9 hPa NNE 4.8 km/h 11.3 km/h 71 % 0 mm
06:26 12.6 °C 7.7 °C 1021.6 hPa NNE 6.1 km/h 9.3 km/h 72 % 0 mm
06:31 12.7 °C 7.9 °C 1021.9 hPa NNE 3.2 km/h 11.3 km/h 73 % 0 mm
06:36 12.7 °C 8.2 °C 1021.9 hPa NNE 3.2 km/h 11.3 km/h 74 % 0 mm
06:41 12.8 °C 8.4 °C 1021.9 hPa NNE 1 km/h 1.9 km/h 75 % 0 mm
06:46 12.8 °C 8.5 °C 1021.9 hPa NE 1.6 km/h 6.4 km/h 75 % 0 mm
06:51 12.9 °C 8.8 °C 1022.2 hPa ENE 1.6 km/h 3.2 km/h 76 % 0 mm
06:56 12.9 °C 8.8 °C 1022.2 hPa NE 1.6 km/h 6.4 km/h 76 % 0 mm
07:01 12.9 °C 8.4 °C 1022.2 hPa North 7.7 km/h 13 km/h 74 % 0 mm
07:06 12.9 °C 8.2 °C 1022.2 hPa NNE 1.6 km/h 12.9 km/h 73 % 0 mm
07:11 12.9 °C 8.4 °C 1022.2 hPa North 4.8 km/h 7.4 km/h 74 % 0 mm
07:16 12.9 °C 8.7 °C 1022.2 hPa NNE 3.2 km/h 11.3 km/h 75 % 0 mm
07:21 13.1 °C 8.6 °C 1022.2 hPa NNE 4.3 km/h 9.3 km/h 74 % 0 mm
07:26 13.2 °C 8.3 °C 1022.6 hPa NNE 3.2 km/h 9.3 km/h 72 % 0 mm
07:31 13.3 °C 8.6 °C 1022.6 hPa NE 1.4 km/h 5.6 km/h 73 % 0 mm
07:36 13.3 °C 8.6 °C 1022.2 hPa NE 2.3 km/h 5.6 km/h 73 % 0 mm
07:42 13.4 °C 8.5 °C 1022.2 hPa NNE 2.3 km/h 5.6 km/h 72 % 0 mm
07:47 13.6 °C 8.4 °C 1022.2 hPa NNE 3.2 km/h 5.6 km/h 71 % 0 mm
07:52 13.7 °C 8.5 °C 1022.2 hPa ENE 2.4 km/h 5.6 km/h 71 % 0 mm
07:57 13.7 °C 8.9 °C 1022.2 hPa North 1.6 km/h 4.8 km/h 73 % 0 mm
08:02 13.8 °C 8.8 °C 1022.9 hPa NNE 3.1 km/h 5.6 km/h 72 % 0 mm
08:07 13.8 °C 8.2 °C 1022.9 hPa ENE 1.6 km/h 3.7 km/h 69 % 0 mm
08:12 13.8 °C 8.4 °C 1023.2 hPa NNE 2.7 km/h 5.6 km/h 70 % 0 mm
08:17 13.8 °C 7.9 °C 1022.9 hPa ENE 2.7 km/h 5.6 km/h 68 % 0 mm
08:22 13.8 °C 8.2 °C 1022.9 hPa ENE 3.1 km/h 7.4 km/h 69 % 0 mm
08:27 13.7 °C 7.7 °C 1022.9 hPa East 4.8 km/h 7.4 km/h 67 % 0 mm
08:32 13.6 °C 8.2 °C 1022.9 hPa ENE 1.1 km/h 3.7 km/h 70 % 0 mm
08:38 13.6 °C 7.8 °C 1022.9 hPa NE 6.9 km/h 11.1 km/h 68 % 0 mm
08:43 13.5 °C 8.1 °C 1023.2 hPa ENE 0.6 km/h 7.4 km/h 70 % 0 mm
08:48 13.5 °C 8.6 °C 1023.2 hPa ENE 3.9 km/h 5.6 km/h 72 % 0 mm
08:53 13.5 °C 8.3 °C 1023.2 hPa ENE 2.3 km/h 5.6 km/h 71 % 0 mm
08:58 13.5 °C 8.6 °C 1023.2 hPa ENE 2.4 km/h 5.6 km/h 72 % 0 mm
09:03 13.6 °C 8.4 °C 1023.2 hPa East 2.9 km/h 5.6 km/h 71 % 0 mm
09:08 13.6 °C 7.8 °C 1023.6 hPa East 2.7 km/h 4.8 km/h 68 % 0 mm
09:13 13.6 °C 8.2 °C 1023.6 hPa ENE 3.5 km/h 5.6 km/h 70 % 0 mm
09:18 13.7 °C 8.1 °C 1023.6 hPa ENE 2.1 km/h 3.7 km/h 69 % 0 mm
09:23 13.7 °C 8.1 °C 1023.6 hPa East 3.1 km/h 5.6 km/h 69 % 0 mm
09:28 13.7 °C 8.5 °C 1023.6 hPa East 2.7 km/h 5.6 km/h 71 % 0 mm
09:33 13.7 °C 8.1 °C 1023.2 hPa ENE 5.1 km/h 7.4 km/h 69 % 0 mm
09:38 13.7 °C 8.3 °C 1023.2 hPa ENE 3.7 km/h 7.4 km/h 70 % 0 mm
09:43 13.8 °C 8.7 °C 1022.9 hPa East 5.6 km/h 8 km/h 71 % 0 mm
09:49 14 °C 8.8 °C 1022.9 hPa ENE 5.1 km/h 7.4 km/h 71 % 0 mm
09:54 14.4 °C 9.1 °C 1022.9 hPa ENE 6 km/h 14.5 km/h 70 % 0 mm
09:59 14.8 °C 8.3 °C 1022.9 hPa ENE 6.6 km/h 11.1 km/h 65 % 0 mm
10:04 15.2 °C 9.1 °C 1022.9 hPa ENE 4.5 km/h 9.7 km/h 67 % 0 mm
10:09 15.5 °C 8.9 °C 1023.2 hPa ENE 5.8 km/h 11.1 km/h 65 % 0 mm
10:14 15.6 °C 8.6 °C 1023.2 hPa ENE 4 km/h 5.6 km/h 63 % 0 mm
10:19 15.4 °C 8.4 °C 1022.9 hPa NE 8 km/h 14.8 km/h 63 % 0 mm
10:24 15 °C 7.8 °C 1023.2 hPa ENE 6.9 km/h 11.3 km/h 62 % 0 mm
10:29 14.7 °C 8.2 °C 1023.2 hPa NE 7.2 km/h 13 km/h 65 % 0 mm
10:34 14.4 °C 7.9 °C 1022.9 hPa ENE 7.9 km/h 11.3 km/h 65 % 0 mm
10:40 14.2 °C 8.4 °C 1022.9 hPa ENE 2.7 km/h 11.3 km/h 68 % 0 mm
10:45 14.2 °C 8.4 °C 1022.9 hPa ENE 4.7 km/h 11.1 km/h 68 % 0 mm
10:50 14.2 °C 8.1 °C 1022.6 hPa ENE 3.4 km/h 13 km/h 67 % 0 mm
10:55 14.1 °C 8.5 °C 1022.6 hPa ENE 1.9 km/h 5.6 km/h 69 % 0 mm
11:00 14.1 °C 8.3 °C 1022.6 hPa ENE 2.7 km/h 4.8 km/h 68 % 0 mm
11:05 14.2 °C 8.2 °C 1022.6 hPa ENE 2.6 km/h 6.4 km/h 67 % 0 mm
11:10 14.3 °C 8.5 °C 1022.6 hPa ENE 0.6 km/h 1.9 km/h 68 % 0 mm
11:15 14.6 °C 8.9 °C 1022.6 hPa ENE 1.6 km/h 3.7 km/h 69 % 0 mm
11:20 14.7 °C 8.9 °C 1022.2 hPa ENE 3.2 km/h 8 km/h 68 % 0 mm
11:25 14.8 °C 8.5 °C 1022.9 hPa NNE 2.1 km/h 5.6 km/h 66 % 0 mm
11:30 14.8 °C 8.6 °C 1022.9 hPa NE 4.2 km/h 7.4 km/h 66 % 0 mm
11:35 14.8 °C 8.7 °C 1022.9 hPa North 2.4 km/h 3.7 km/h 67 % 0 mm
11:40 14.8 °C 8.6 °C 1022.6 hPa ENE 7.6 km/h 9.3 km/h 66 % 0 mm
11:45 14.9 °C 8.6 °C 1022.6 hPa East 4.2 km/h 13 km/h 66 % 0 mm
11:51 15.3 °C 9.2 °C 1022.6 hPa ENE 3.2 km/h 8 km/h 67 % 0 mm
11:56 15.8 °C 8.3 °C 1022.9 hPa East 9.7 km/h 9.7 km/h 61 % 0 mm
12:01 16 °C 8.7 °C 1022.6 hPa ENE 10.5 km/h 16.7 km/h 62 % 0 mm
12:06 16.2 °C 8.9 °C 1022.6 hPa NE 5.3 km/h 11.3 km/h 62 % 0 mm
12:11 16.1 °C 9 °C 1022.9 hPa East 6.8 km/h 11.1 km/h 63 % 0 mm
12:16 15.9 °C 9.6 °C 1022.9 hPa East 1.4 km/h 3.7 km/h 66 % 0 mm
12:21 16.1 °C 8.1 °C 1022.6 hPa SSE 8 km/h 22.2 km/h 59 % 0 mm
12:26 16.2 °C 8.2 °C 1022.9 hPa SE 8.4 km/h 18.5 km/h 59 % 0 mm
12:31 16.3 °C 7.8 °C 1022.9 hPa SSE 12.6 km/h 16.7 km/h 57 % 0 mm
12:36 16.3 °C 7.8 °C 1022.9 hPa SE 9.2 km/h 13 km/h 57 % 0 mm
12:41 16.4 °C 7.8 °C 1022.9 hPa ESE 5.1 km/h 13 km/h 57 % 0 mm
12:46 16.4 °C 7.4 °C 1023.2 hPa South 8.2 km/h 18.5 km/h 55 % 0 mm
12:52 16.3 °C 7 °C 1023.2 hPa SSE 6.1 km/h 24.1 km/h 54 % 0 mm
12:57 16.1 °C 7.1 °C 1023.2 hPa SSE 3.4 km/h 12.9 km/h 55 % 0 mm
13:02 15.9 °C 7.9 °C 1023.6 hPa ENE 3.4 km/h 5.6 km/h 59 % 0 mm
13:07 15.8 °C 7.3 °C 1023.6 hPa SSE 5.6 km/h 9.3 km/h 57 % 0 mm
13:12 15.7 °C 7.2 °C 1023.6 hPa SE 6 km/h 11.1 km/h 57 % 0 mm
13:17 15.7 °C 6.9 °C 1023.6 hPa SSE 5 km/h 7.4 km/h 56 % 0 mm
13:22 15.7 °C 7.2 °C 1023.9 hPa SSE 4.3 km/h 14.8 km/h 57 % 0 mm
13:27 15.6 °C 7.1 °C 1023.6 hPa SE 7.7 km/h 14.8 km/h 57 % 0 mm
13:32 15.6 °C 7.3 °C 1023.6 hPa SE 3.2 km/h 9.3 km/h 58 % 0 mm
13:37 15.7 °C 8.2 °C 1023.2 hPa East 5 km/h 7.4 km/h 61 % 0 mm
13:43 15.9 °C 7.9 °C 1023.2 hPa SE 5.8 km/h 13 km/h 59 % 0 mm
13:48 16 °C 8 °C 1022.9 hPa SSE 4 km/h 9.7 km/h 59 % 0 mm
13:53 16 °C 7.5 °C 1022.9 hPa SE 8.7 km/h 16.1 km/h 57 % 0 mm
13:58 16 °C 7.5 °C 1022.6 hPa East 8.4 km/h 14.8 km/h 57 % 0 mm
14:03 16.1 °C 7.8 °C 1022.6 hPa East 8.5 km/h 14.8 km/h 58 % 0 mm
14:09 16.1 °C 8.1 °C 1022.6 hPa ESE 6.8 km/h 13 km/h 59 % 0 mm
14:14 16.2 °C 8.4 °C 1022.6 hPa East 4.2 km/h 11.1 km/h 60 % 0 mm
14:19 16.2 °C 7.9 °C 1022.2 hPa East 2.4 km/h 16.7 km/h 58 % 0 mm
14:24 16.2 °C 8.9 °C 1022.2 hPa East 7.4 km/h 9.3 km/h 62 % 0 mm
14:29 16.2 °C 8.4 °C 1022.2 hPa East 6.9 km/h 9.7 km/h 60 % 0 mm
14:34 16.1 °C 8.6 °C 1022.2 hPa East 8.2 km/h 11.3 km/h 61 % 0 mm
14:39 15.9 °C 8.2 °C 1022.2 hPa ESE 6.3 km/h 9.3 km/h 60 % 0 mm
14:44 15.8 °C 7.5 °C 1022.2 hPa SSE 8.7 km/h 14.5 km/h 58 % 0 mm
14:49 15.7 °C 7.2 °C 1022.2 hPa SSE 6.6 km/h 13 km/h 57 % 0 mm
14:54 15.5 °C 7.5 °C 1022.2 hPa East 5.5 km/h 8 km/h 59 % 0 mm
14:59 15.4 °C 7.4 °C 1022.2 hPa SSE 5.6 km/h 9.3 km/h 59 % 0 mm
15:04 15.2 °C 7.2 °C 1022.6 hPa SE 10.1 km/h 12.9 km/h 59 % 0 mm
15:10 15 °C 7.1 °C 1022.9 hPa SSE 2.4 km/h 9.3 km/h 59 % 0 mm
15:15 14.8 °C 7.1 °C 1022.9 hPa SE 4.8 km/h 13 km/h 60 % 0 mm
15:20 14.7 °C 7.3 °C 1022.9 hPa SSE 2.1 km/h 7.4 km/h 61 % 0 mm
15:25 14.6 °C 7.2 °C 1022.9 hPa SSE 1.9 km/h 5.6 km/h 61 % 0 mm
15:30 14.6 °C 7.3 °C 1022.9 hPa SSE 5.1 km/h 7.4 km/h 62 % 0 mm
15:35 14.6 °C 7.6 °C 1022.9 hPa SE 3.4 km/h 5.6 km/h 63 % 0 mm
15:40 14.5 °C 7.1 °C 1022.6 hPa SSE 1.8 km/h 8 km/h 61 % 0 mm
15:45 14.4 °C 7.2 °C 1022.6 hPa SE 3.7 km/h 7.4 km/h 62 % 0 mm
15:50 14.5 °C 7.8 °C 1022.6 hPa ESE 1.3 km/h 5.6 km/h 64 % 0 mm
15:55 14.5 °C 7.1 °C 1022.2 hPa East 4.2 km/h 9.3 km/h 61 % 0 mm
16:00 14.4 °C 7 °C 1022.2 hPa SE 2.3 km/h 11.1 km/h 61 % 0 mm
16:05 14.4 °C 6.8 °C 1022.2 hPa SSE 6 km/h 11.3 km/h 60 % 0 mm
16:10 14.4 °C 6.7 °C 1022.2 hPa ESE 4 km/h 14.8 km/h 60 % 0 mm
16:16 14.3 °C 6.9 °C 1022.2 hPa East 4.8 km/h 8 km/h 61 % 0 mm
16:21 14.3 °C 6.8 °C 1022.6 hPa ESE 3.2 km/h 8 km/h 61 % 0 mm
16:26 14.2 °C 6.5 °C 1022.2 hPa SE 3.2 km/h 8 km/h 60 % 0 mm
16:31 14.1 °C 6.4 °C 1022.2 hPa SE 9.7 km/h 14.5 km/h 60 % 0 mm
16:36 14.1 °C 6.7 °C 1022.2 hPa ESE 4.8 km/h 14.5 km/h 61 % 0 mm
16:41 13.9 °C 6.6 °C 1022.2 hPa ESE 3.2 km/h 7.4 km/h 61 % 0 mm
16:46 13.9 °C 6.9 °C 1022.2 hPa ESE 3.2 km/h 8 km/h 63 % 0 mm
16:51 13.8 °C 6.4 °C 1022.2 hPa SE 3.2 km/h 12.9 km/h 61 % 0 mm
16:56 13.7 °C 6.8 °C 1022.2 hPa SE 1.6 km/h 9.7 km/h 63 % 0 mm
17:01 13.6 °C 6.2 °C 1022.2 hPa SSE 3.4 km/h 5.6 km/h 61 % 0 mm
17:06 13.4 °C 6.8 °C 1022.2 hPa SSE 4 km/h 6.4 km/h 64 % 0 mm
17:12 13.4 °C 6.9 °C 1022.2 hPa SSE 2.1 km/h 5.6 km/h 65 % 0 mm
17:17 13.3 °C 7.3 °C 1022.2 hPa ESE 1.9 km/h 5.6 km/h 67 % 0 mm
17:22 13.2 °C 6.8 °C 1022.2 hPa East 2.1 km/h 5.6 km/h 65 % 0 mm
17:27 13.1 °C 6.9 °C 1022.2 hPa East 1.9 km/h 8 km/h 66 % 0 mm
17:32 13.1 °C 7.1 °C 1022.2 hPa ESE 3.9 km/h 5.6 km/h 67 % 0 mm
17:37 12.9 °C 6.7 °C 1022.6 hPa ESE 0.8 km/h 1.9 km/h 66 % 0 mm
17:42 12.9 °C 6.7 °C 1022.6 hPa ESE 1.1 km/h 3.2 km/h 66 % 0 mm
17:47 12.9 °C 7.3 °C 1022.6 hPa ESE 2.9 km/h 5.6 km/h 69 % 0 mm
17:52 12.8 °C 7.3 °C 1022.6 hPa East 3.1 km/h 5.6 km/h 69 % 0 mm
17:57 12.8 °C 7 °C 1022.6 hPa East 4 km/h 5.6 km/h 68 % 0 mm
18:03 12.7 °C 7.2 °C 1022.6 hPa East 3.5 km/h 5.6 km/h 69 % 0 mm
18:08 12.7 °C 6.9 °C 1022.6 hPa ENE 2.4 km/h 5.6 km/h 68 % 0 mm
18:13 12.6 °C 6.8 °C 1022.9 hPa ENE 2.1 km/h 5.6 km/h 68 % 0 mm
18:18 12.5 °C 6.8 °C 1022.9 hPa NE 3.2 km/h 5.6 km/h 68 % 0 mm
18:23 12.4 °C 6.9 °C 1022.6 hPa East 4 km/h 8 km/h 69 % 0 mm
18:28 12.3 °C 6.8 °C 1022.6 hPa East 5 km/h 8 km/h 69 % 0 mm
18:33 12.3 °C 6.8 °C 1022.6 hPa East 4 km/h 8 km/h 69 % 0 mm
18:38 12.2 °C 6.3 °C 1022.6 hPa East 3.1 km/h 7.4 km/h 67 % 0 mm
18:43 12.2 °C 6.4 °C 1022.2 hPa East 3.9 km/h 7.4 km/h 68 % 0 mm
18:48 12.1 °C 6.6 °C 1022.2 hPa East 4.7 km/h 9.3 km/h 69 % 0 mm
18:53 12.1 °C 5.9 °C 1022.2 hPa East 4.8 km/h 9.3 km/h 66 % 0 mm
18:59 12 °C 5.8 °C 1022.2 hPa East 4.5 km/h 5.6 km/h 66 % 0 mm
19:04 12 °C 6.1 °C 1022.2 hPa ESE 1.3 km/h 5.6 km/h 67 % 0 mm
19:09 11.9 °C 6 °C 1022.2 hPa SE 1.6 km/h 3.7 km/h 67 % 0 mm
19:14 11.9 °C 5.8 °C 1021.9 hPa ENE 2.7 km/h 5.6 km/h 66 % 0 mm
19:19 11.8 °C 5.4 °C 1021.9 hPa ESE 2.3 km/h 5.6 km/h 65 % 0 mm
19:24 11.8 °C 5.4 °C 1021.9 hPa SE 3.9 km/h 7.4 km/h 65 % 0 mm
19:29 11.8 °C 5.4 °C 1021.9 hPa East 4.2 km/h 5.6 km/h 65 % 0 mm
19:34 11.7 °C 5.5 °C 1021.9 hPa ESE 2.7 km/h 7.4 km/h 66 % 0 mm
19:39 11.6 °C 5.7 °C 1021.9 hPa ESE 1.4 km/h 5.6 km/h 67 % 0 mm
19:44 11.6 °C 5.4 °C 1022.2 hPa Calm   5.6 km/h 66 % 0 mm
19:50 11.6 °C 5.4 °C 1022.6 hPa Calm     66 % 0 mm
19:55 11.6 °C 5.4 °C 1022.2 hPa Calm     66 % 0 mm
20:00 11.6 °C 5.4 °C 1022.2 hPa SSE 8.2 km/h 13 km/h 66 % 0 mm
20:05 11.5 °C 5.4 °C 1021.9 hPa ESE 0.3 km/h 1.9 km/h 66 % 0 mm
20:10 11.4 °C 5.3 °C 1021.6 hPa ESE 3.2 km/h 7.4 km/h 66 % 0 mm
20:15 11.4 °C 5.1 °C 1021.9 hPa SE 3.4 km/h 11.1 km/h 65 % 0 mm
20:20 11.3 °C 5 °C 1021.6 hPa ESE 1.4 km/h 4.8 km/h 65 % 0 mm
20:25 11.3 °C 5.2 °C 1021.6 hPa ESE 1.3 km/h 3.7 km/h 66 % 0 mm
20:30 11.2 °C 4.9 °C 1021.2 hPa SSE 5.6 km/h 12.9 km/h 65 % 0 mm
20:35 11.2 °C 4.8 °C 1021.2 hPa SSE 6.6 km/h 14.8 km/h 65 % 0 mm
20:40 11.2 °C 5.1 °C 1021.6 hPa SE 5 km/h 8 km/h 66 % 0 mm
20:45 11.1 °C 5.2 °C 1021.2 hPa ESE 3.4 km/h 7.4 km/h 67 % 0 mm
20:51 11.1 °C 5.2 °C 1021.2 hPa ESE 8 km/h 12.9 km/h 67 % 0 mm
20:56 11 °C 5.3 °C 1021.2 hPa ESE 1.6 km/h 8 km/h 68 % 0 mm
21:01 10.9 °C 5.7 °C 1021.2 hPa ESE 3.2 km/h 7.4 km/h 70 % 0 mm
21:06 10.9 °C 5.4 °C 1021.6 hPa ESE 3.5 km/h 9.3 km/h 69 % 0 mm
21:11 10.9 °C 5.6 °C 1021.6 hPa SSE 0.3 km/h 1.9 km/h 70 % 0 mm
21:16 10.8 °C 5.6 °C 1021.6 hPa East 1.1 km/h 3.7 km/h 70 % 0 mm
21:21 10.8 °C 6 °C 1021.6 hPa ESE 2.1 km/h 5.6 km/h 72 % 0 mm
21:26 10.8 °C 6.2 °C 1021.9 hPa ESE 0.5 km/h 3.7 km/h 73 % 0 mm
21:31 10.8 °C 5.9 °C 1021.6 hPa SE 1.1 km/h 3.7 km/h 72 % 0 mm
21:36 10.8 °C 6.1 °C 1021.6 hPa SE 0.2 km/h 1.9 km/h 73 % 0 mm
21:41 10.8 °C 6.1 °C 1021.6 hPa SE 2.3 km/h 3.7 km/h 73 % 0 mm
21:46 10.8 °C 6.1 °C 1021.9 hPa ESE 0.6 km/h 5.6 km/h 73 % 0 mm
21:51 10.7 °C 6.1 °C 1021.6 hPa ESE 2.9 km/h 5.6 km/h 73 % 0 mm
21:57 10.7 °C 6.3 °C 1021.6 hPa ESE 1.1 km/h 3.7 km/h 74 % 0 mm
22:02 10.7 °C 6.3 °C 1021.9 hPa Calm   1.9 km/h 74 % 0 mm
22:07 10.7 °C 6.3 °C 1021.6 hPa ESE 1.4 km/h 3.7 km/h 74 % 0 mm
22:12 10.7 °C 6.4 °C 1021.6 hPa ESE 0.3 km/h 1.9 km/h 75 % 0 mm
22:17 10.7 °C 6.4 °C 1021.6 hPa ESE 0.8 km/h 1.9 km/h 75 % 0 mm
22:18 10.7 °C 6.4 °C 1021.6 hPa ESE 1.3 km/h 1.9 km/h 75 % 0 mm
22:23 10.7 °C 6.4 °C 1021.2 hPa ESE 1.4 km/h 3.7 km/h 75 % 0 mm
22:29 10.7 °C 6.2 °C 1021.2 hPa ESE 1.4 km/h 3.7 km/h 74 % 0 mm
22:34 10.7 °C 6.4 °C 1021.2 hPa East 0.5 km/h 1.9 km/h 75 % 0 mm
22:39 10.7 °C 6.6 °C 1020.9 hPa East 2.6 km/h 3.7 km/h 76 % 0 mm
22:44 10.7 °C 6.6 °C 1020.9 hPa East 4.3 km/h 5.6 km/h 76 % 0 mm
22:49 10.6 °C 6.6 °C 1020.9 hPa East 2.7 km/h 4.8 km/h 76 % 0 mm
22:54 10.6 °C 6.7 °C 1020.5 hPa East 2.3 km/h 3.7 km/h 77 % 0 mm
22:59 10.6 °C 6.5 °C 1019.9 hPa East 5.3 km/h 8 km/h 76 % 0 mm
23:04 10.6 °C 6.5 °C 1020.2 hPa ESE 2.1 km/h 3.7 km/h 76 % 0 mm
23:09 10.6 °C 6.9 °C 1020.5 hPa ENE 4.8 km/h 7.4 km/h 78 % 0 mm
23:14 10.6 °C 6.9 °C 1020.5 hPa ENE 1.9 km/h 3.7 km/h 78 % 0 mm
23:19 10.6 °C 7.1 °C 1020.2 hPa ENE 3.7 km/h 5.6 km/h 79 % 0 mm
23:24 10.5 °C 7 °C 1020.2 hPa East 3.5 km/h 5.6 km/h 79 % 0 mm
23:29 10.5 °C 7 °C 1020.2 hPa East 3.4 km/h 7.4 km/h 79 % 0 mm
23:34 10.5 °C 7 °C 1020.2 hPa East 1.3 km/h 3.7 km/h 79 % 0 mm
23:40 10.5 °C 7 °C 1020.5 hPa East 1.9 km/h 3.7 km/h 79 % 0 mm
23:44 10.5 °C 7 °C 1020.5 hPa East 1.1 km/h 3.7 km/h 79 % 0 mm
23:50 10.4 °C 7.2 °C 1020.5 hPa ENE 3.7 km/h 3.7 km/h 80 % 0 mm
23:55 10.4 °C 7.2 °C 1020.5 hPa ENE 1.3 km/h 5.6 km/h 80 % 0 mm
23:56 10.4 °C 7.2 °C 1020.5 hPa ENE 1.3 km/h 3.7 km/h 80 % 0 mm
Crab Meadow Weather
Compliments of Weather Underground - 3 mb

Script developed by  Jim McMurry - jmcmurry@mwt.net Adapted for the template by  Wim van der Kuil - Leuven-Template.eu

Barometer: A barometer is an instrument used to measure atmospheric pressure. A barometer is commonly used for weather prediction, as high air pressure in a region indicates fair weather while low pressure indicates that storms are more likely. When used in combination with wind observations, reasonably accurate short-term forecasts can be made.